Location: The Saddle
(36.8333°N, 80.3417°W)
Time: 13:49:54
(UTC-04:00)

Courier 1B - Pass Details

Date: 27 September 2024
Orbit: 962 x 1208 km, 28.3° (Epoch: 06 October)

Event Time Altitude Azimuth Distance (km) Brightness Sun altitude
Rises 11:15:01 0° 244° (WSW) 3,630 10.4 42.6°
Reaches altitude 10° 11:17:50 10° 236° (SW) 2,684 9.9 43.0°
Maximum altitude 11:23:40 37° 171° (S) 1,472 10.0 43.7°
Drops below altitude 10° 11:29:40 10° 107° (ESE) 2,756 10.6 44.5°
Sets 11:32:35 0° 99° (E) 3,739 11.0 44.8°
